Location: Newark
(48.8833°N, 0.9236°W)
Time: 23:58:10
(UTC+00:00)

Transit 4A - Pass Details

Date: 29 November 2019
Orbit: 870 x 975 km, 66.8° (Epoch: 07 December)

Event Time Altitude Azimuth Distance (km) Brightness Sun altitude
Rises 20:12:27 0° 221° (SW) 3,619 11.3 -38.9°
Reaches altitude 10° 20:15:02 10° 224° (SW) 2,664 10.5 -39.3°
Enters shadow 20:16:23 17° 226° (SW) 2,178 10.1 -39.6°
